[[{"header":{"parameterUnit":"m.s-1","parameterCategory":1,"la1":30.2991,"la2":30.254,"lo1":-89.0895,"lo2":-89.0444,"dy":0.0017,"dx":0.0017,"nx":28,"ny":28,"refTime":"2025-12-29T03:00:00:Z","depth":0,"parameterNumber":2,"parameterNumberName":"U-component_of_WINDS"},"data":[0,0,0,0,0,0,0,0,0,0,0,0,0,0,0,0,0,0,0,0,0,0,0,0,0,0,0,0,0,0,0,0,0,0,0,0,0,0,0,0,0,0,0,0,0,0,0,0,0,0,0,0,0,0,0,0,0,0,2.1536,2.1537,0,2.1568,2.1569,2.1569,2.1564,2.1563,2.1563,2.1562,2.1593,2.1595,2.1596,0,0,0,0,0,0,0,0,0,0,0,0,0,2.1471,2.1472,2.1536,2.1537,2.1537,2.1568,2.1569,2.1569,2.1564,2.1563,2.1562,2.1562,2.1593,2.1595,2.1596,0,0,0,0,0,0,0,0,0,0,0,0,0,2.1501,2.1472,2.1536,2.1538,2.1539,2.1568,2.1569,2.1569,2.1564,2.1563,2.1562,2.1561,2.1592,2.1594,2.1596,2.1625,0,0,2.1603,2.1603,0,0,0,0,0,0,0,0,2.1499,2.1503,2.1538,2.1538,2.1539,2.1561,2.1557,2.1588,2.1564,2.1554,2.1562,2.1561,2.1583,2.1586,2.1594,2.1627,2.1628,2.1603,2.1604,2.1605,2.1605,0,0,0,0,0,0,0,2.1497,2.1502,2.1549,2.1538,2.1539,2.1538,2.1541,2.1563,2.1573,2.1555,2.1555,2.1559,2.1583,2.1592,2.1594,2.1628,2.1603,2.1604,2.1606,2.1606,2.1689,2.1689,0,0,0,0,0,0,2.1494,2.15,2.1548,2.155,2.1516,2.1539,2.1543,2.1555,2.1573,2.1575,2.1559,2.1558,2.1589,2.1592,2.1595,2.1631,2.1605,2.1607,2.1608,2.1688,2.1689,2.169,0,0,0,0,0,0,2.1493,2.1499,2.1547,2.1525,2.1531,2.1541,2.1555,2.1556,2.1564,2.1576,2.1578,2.1566,2.1588,2.1593,2.1618,2.1632,2.1608,2.1609,2.1686,2.1688,2.1689,2.1703,0,0,0,0,0,0,2.1491,2.1498,2.1509,2.1525,2.1532,2.1569,2.1555,2.1557,2.1568,2.1567,2.1583,2.1584,2.1588,2.1615,2.162,2.1635,2.1611,2.1685,2.1687,2.1689,2.1701,2.1704,2.1707,0,0,0,0,0,2.1489,2.1511,2.151,2.1515,2.1546,2.157,2.1573,2.1577,2.1569,2.158,2.1588,2.1584,2.163,2.1618,2.1624,2.1639,2.1684,2.1687,2.1689,2.1699,2.1704,2.1707,0,0,0,0,0,0,2.1495,2.1513,2.1512,2.154,2.1553,2.1569,2.1583,2.1581,2.1597,2.1595,2.1599,2.1603,2.1629,2.1637,2.1623,2.1668,2.1656,2.1659,2.1662,2.1666,2.167,2.1667,2.1613,0,0,0,0,0,2.15,2.1518,2.1532,2.1556,2.1563,2.1572,2.1582,2.1584,2.1598,2.1604,2.1613,2.1627,2.1645,2.1656,2.1673,2.1702,2.1706,2.1716,2.1719,2.1721,2.1724,2.1741,2.1746,2.1697,2.1697,2.1697,0,0,2.151,2.1522,2.1532,2.1557,2.1568,2.1587,2.1576,2.1596,2.161,2.1606,2.1632,2.164,2.1655,2.1683,2.1696,2.169,2.1739,2.1724,2.1726,2.1727,2.1744,2.1749,2.1753,2.1698,2.1698,2.1698,0,0,2.1537,2.1548,2.1569,2.158,2.1597,2.1604,2.1609,2.1625,2.163,2.1656,2.1654,2.1671,2.1701,2.1712,2.1722,2.1756,2.1753,2.1762,2.1778,2.1795,2.1799,2.1802,2.1815,2.1819,2.1765,2.1765,2.1765,0,2.1547,2.1575,2.158,2.16,2.1612,2.1611,2.1632,2.1643,2.1665,2.1672,2.1666,2.1705,2.1715,2.1747,2.1755,2.1763,2.1769,2.1759,2.1798,2.1801,2.1804,2.1817,2.1821,2.1766,2.1765,2.1765,2.1765,0,2.1586,2.1606,2.1621,2.1643,2.1656,2.1677,2.1686,2.1698,2.17,2.1707,2.1734,2.1747,2.1767,2.1774,2.1775,2.1806,2.1802,2.1797,2.1784,2.181,2.1821,2.1826,2.1767,2.1766,2.1766,2.1766,0,0,2.1617,2.1643,2.1648,2.1658,2.1678,2.1693,2.1715,2.1736,2.1747,2.1762,2.178,2.1807,2.1803,2.1814,2.1817,2.1832,2.1859,2.1824,2.1825,2.183,2.1895,2.1898,2.1904,2.1858,2.1859,2.1859,2.1893,0,2.1646,2.1684,2.169,2.1724,2.1743,2.1743,2.1762,2.1777,2.1784,2.1801,2.181,2.1829,2.1821,2.1828,2.1843,2.1852,2.1872,2.185,2.1875,2.1876,2.187,2.191,2.1913,2.1945,2.1898,2.1899,2.1899,0,2.1684,2.1702,2.1738,2.1757,2.1765,2.1782,2.1802,2.1818,2.1835,2.184,2.1853,2.1855,2.1878,2.1865,2.1897,2.1883,2.1893,2.19,2.1901,2.1903,2.1888,2.1912,2.1955,2.1959,2.1906,2.1906,2.1905,0,2.1703,2.1736,2.1762,2.1771,2.1793,2.1806,2.1815,2.1831,2.1844,2.1862,2.187,2.189,2.1901,2.1916,2.1923,2.1914,2.1955,2.1943,2.196,2.196,2.1968,2.1967,2.2012,2.1975,2.1975,2.1975,2.1975,0,2.1735,2.1757,2.1771,2.1787,2.1812,2.182,2.1844,2.1854,2.1868,2.1886,2.1888,2.1905,2.1914,2.1932,2.1938,2.1964,2.1969,2.1973,2.1975,2.1973,2.1973,2.198,2.1977,2.1976,2.1976,2.1976,2.1976,0,2.176,2.177,2.1799,2.1818,2.1824,2.1841,2.1858,2.1874,2.1883,2.1905,2.1911,2.1924,2.1946,2.1956,2.1982,2.1986,2.2016,2.2016,2.2011,2.2011,2.2027,2.2026,2.2078,2.2086,2.2044,2.2045,2.2045,0,2.1779,2.1796,2.1818,2.1831,2.1841,2.1862,2.1875,2.1883,2.1897,2.1919,2.1932,2.1954,2.1972,2.2008,2.2019,2.204,2.204,2.2058,2.2043,2.2042,2.2041,2.204,2.2042,2.206,2.206,2.206,2.2061,0,2.1813,2.1817,2.1836,2.1858,2.1874,2.1891,2.1908,2.1918,2.1929,2.1945,2.1968,2.1982,2.201,2.2032,2.2054,2.2065,2.2065,2.2065,2.207,2.2069,2.2065,2.2067,2.2018,2.2064,2.2064,2.2063,2.2063,2.2063,2.1835,2.1851,2.1869,2.1891,2.1905,2.1921,2.1937,2.1949,2.1968,2.1992,2.1996,2.2021,2.2039,2.2068,2.208,2.2099,2.2095,2.2102,2.2104,2.2105,2.2107,2.2063,2.2103,2.2103,2.2103,2.2103,2.2103,0,2.1869,2.1881,2.1901,2.1925,2.1943,2.1942,2.1961,2.1976,2.1998,2.2015,2.2033,2.206,2.2082,2.2097,2.212,2.2133,2.2133,2.2138,2.2137,2.214,2.2109,2.2103,2.2137,2.2137,2.2137,2.2137,2.2137,2.2137,2.1888,2.1915,2.1923,2.1957,2.1969,2.1994,2.2005,2.202,2.2034,2.2064,2.2083,2.2092,2.2109,2.2133,2.2153,2.2157,2.2165,2.2171,2.2174,2.2145,2.2142,2.2138,2.2132,2.2172,2.2172,2.2203,2.2203,2.2203]},{"header":{"parameterUnit":"m.s-1","parameterCategory":1,"la1":30.2991,"la2":30.254,"lo1":-89.0895,"lo2":-89.0444,"dy":0.0017,"dx":0.0017,"nx":28,"ny":28,"refTime":"2025-12-29T03:00:00:Z","depth":0,"parameterNumber":3,"parameterNumberName":"V-component_of_WINDS"},"data":[0,0,0,0,0,0,0,0,0,0,0,0,0,0,0,0,0,0,0,0,0,0,0,0,0,0,0,0,0,0,0,0,0,0,0,0,0,0,0,0,0,0,0,0,0,0,0,0,0,0,0,0,0,0,0,0,0,0,-8.1098,-8.11,0,-8.1241,-8.1243,-8.1244,-8.1182,-8.1178,-8.1175,-8.1171,-8.131,-8.1317,-8.1323,0,0,0,0,0,0,0,0,0,0,0,0,0,-8.0767,-8.0773,-8.1098,-8.11,-8.1102,-8.1241,-8.1243,-8.1245,-8.1182,-8.1178,-8.1174,-8.117,-8.1308,-8.1316,-8.1324,0,0,0,0,0,0,0,0,0,0,0,0,0,-8.091,-8.0775,-8.1098,-8.1088,-8.1088,-8.124,-8.1243,-8.1245,-8.1183,-8.1178,-8.1173,-8.1168,-8.1305,-8.1315,-8.1325,-8.1494,0,0,-8.1357,-8.1361,0,0,0,0,0,0,0,0,-8.0902,-8.0922,-8.1087,-8.1089,-8.109,-8.1188,-8.1176,-8.1328,-8.1184,-8.1147,-8.1171,-8.1165,-8.1273,-8.1286,-8.1324,-8.15,-8.1506,-8.1358,-8.1364,-8.1369,-8.1372,0,0,0,0,0,0,0,-8.0892,-8.0916,-8.1154,-8.109,-8.1091,-8.1074,-8.1089,-8.1205,-8.1237,-8.115,-8.1146,-8.1164,-8.1273,-8.1314,-8.1327,-8.1508,-8.1358,-8.1367,-8.1373,-8.1377,-8.1832,-8.1837,0,0,0,0,0,0,-8.0883,-8.0908,-8.115,-8.1159,-8.0981,-8.1084,-8.1101,-8.1162,-8.1236,-8.1242,-8.1168,-8.116,-8.1299,-8.1314,-8.1331,-8.1535,-8.1369,-8.1378,-8.1384,-8.1826,-8.1833,-8.1839,0,0,0,0,0,0,-8.0876,-8.0905,-8.1144,-8.1032,-8.1061,-8.1096,-8.1165,-8.1167,-8.1209,-8.125,-8.1254,-8.1205,-8.1295,-8.1317,-8.1455,-8.1539,-8.1383,-8.1392,-8.1819,-8.1828,-8.1836,-8.1943,0,0,0,0,0,0,-8.0867,-8.0903,-8.0969,-8.1034,-8.1068,-8.1268,-8.117,-8.1174,-8.1228,-8.1219,-8.1285,-8.1291,-8.1293,-8.144,-8.1465,-8.155,-8.1401,-8.1811,-8.1823,-8.1833,-8.1932,-8.1954,-8.1974,0,0,0,0,0,-8.0855,-8.0991,-8.0972,-8.1002,-8.1151,-8.1272,-8.1291,-8.1292,-8.1235,-8.13,-8.1327,-8.1289,-8.1526,-8.1454,-8.1482,-8.1572,-8.1806,-8.182,-8.1832,-8.1923,-8.195,-8.1973,0,0,0,0,0,0,-8.0931,-8.0999,-8.0979,-8.1141,-8.1202,-8.1262,-8.1344,-8.1321,-8.1397,-8.1385,-8.1381,-8.1397,-8.154,-8.1569,-8.1489,-8.174,-8.1657,-8.1676,-8.1716,-8.1742,-8.1762,-8.1753,-8.1409,0,0,0,0,0,-8.0967,-8.1062,-8.1116,-8.1253,-8.1285,-8.131,-8.1363,-8.1359,-8.142,-8.1445,-8.1482,-8.1541,-8.1629,-8.1687,-8.177,-8.1936,-8.195,-8.2011,-8.2032,-8.2049,-8.2066,-8.2158,-8.2186,-8.1882,-8.1882,-8.1882,0,0,-8.1041,-8.109,-8.115,-8.1269,-8.1316,-8.1414,-8.1332,-8.1437,-8.151,-8.146,-8.1595,-8.1624,-8.169,-8.1844,-8.1913,-8.1872,-8.2153,-8.2066,-8.2079,-8.2087,-8.2174,-8.2203,-8.2229,-8.1891,-8.189,-8.1888,0,0,-8.1227,-8.1273,-8.1394,-8.1444,-8.1517,-8.1533,-8.1562,-8.1627,-8.1645,-8.178,-8.1746,-8.183,-8.1981,-8.2031,-8.2076,-8.2283,-8.2252,-8.231,-8.2418,-8.2508,-8.2532,-8.2553,-8.2628,-8.2655,-8.2327,-8.2327,-8.2327,0,-8.1309,-8.1457,-8.1458,-8.1569,-8.1623,-8.1586,-8.1708,-8.1754,-8.185,-8.1887,-8.1841,-8.2032,-8.2073,-8.2239,-8.2291,-8.2327,-8.236,-8.2303,-8.2529,-8.255,-8.257,-8.2642,-8.267,-8.2334,-8.2333,-8.2332,-8.2332,0,-8.1556,-8.1659,-8.1747,-8.1845,-8.1908,-8.2023,-8.2041,-8.2104,-8.2095,-8.2116,-8.2255,-8.2304,-8.2397,-8.2436,-8.2426,-8.2601,-8.2574,-8.2529,-8.2445,-8.2605,-8.2673,-8.27,-8.2343,-8.2341,-8.2339,-8.2337,0,0,-8.1792,-8.1891,-8.1924,-8.1968,-8.2048,-8.2126,-8.224,-8.2334,-8.239,-8.2457,-8.2552,-8.2682,-8.2642,-8.2693,-8.2688,-8.2767,-8.2931,-8.2712,-8.2713,-8.2752,-8.3128,-8.3163,-8.3195,-8.291,-8.2915,-8.2919,-8.3123,0,-8.1985,-8.2188,-8.2193,-8.2378,-8.2474,-8.2441,-8.254,-8.2599,-8.2622,-8.2705,-8.2728,-8.2822,-8.276,-8.2791,-8.2867,-8.2895,-8.3006,-8.288,-8.2998,-8.3002,-8.2984,-8.323,-8.3267,-8.3457,-8.3149,-8.3154,-8.3157,0,-8.2237,-8.2317,-8.2513,-8.2581,-8.2621,-8.271,-8.2799,-8.2879,-8.2944,-8.2955,-8.3014,-8.2999,-8.3114,-8.3027,-8.3185,-8.3099,-8.3148,-8.3169,-8.3176,-8.3188,-8.309,-8.325,-8.3517,-8.3546,-8.3198,-8.3195,-8.3192,0,-8.2393,-8.2548,-8.2686,-8.2725,-8.2807,-8.2871,-8.2908,-8.2969,-8.3026,-8.3102,-8.3139,-8.3226,-8.3275,-8.3342,-8.335,-8.3286,-8.351,-8.3423,-8.3522,-8.3522,-8.3571,-8.3568,-8.3852,-8.3601,-8.36,-8.36,-8.3599,0,-8.2608,-8.273,-8.2758,-8.2842,-8.2977,-8.2982,-8.3115,-8.3146,-8.3201,-8.329,-8.3265,-8.3349,-8.3355,-8.3441,-8.3448,-8.3579,-8.36,-8.3612,-8.3612,-8.3615,-8.3614,-8.3647,-8.3635,-8.3607,-8.3606,-8.3604,-8.3603,0,-8.2805,-8.2828,-8.2977,-8.3044,-8.3064,-8.316,-8.3217,-8.3297,-8.3318,-8.3432,-8.3459,-8.3491,-8.3591,-8.3606,-8.3722,-8.3727,-8.3885,-8.3871,-8.3864,-8.3863,-8.3962,-8.3953,-8.4277,-8.4321,-8.404,-8.4043,-8.4045,0,-8.2942,-8.3035,-8.3114,-8.3174,-8.3215,-8.3311,-8.337,-8.3378,-8.344,-8.3524,-8.3595,-8.3693,-8.3772,-8.3934,-8.3966,-8.4055,-8.4044,-8.4152,-8.4057,-8.4058,-8.4047,-8.4043,-8.4052,-8.417,-8.4173,-8.4175,-8.4177,0,-8.3183,-8.3191,-8.3279,-8.3373,-8.3446,-8.3518,-8.3587,-8.3637,-8.3653,-8.3725,-8.3829,-8.3891,-8.4012,-8.411,-8.4199,-8.4234,-8.4209,-8.4207,-8.4235,-8.4239,-8.4232,-8.4239,-8.3916,-8.42,-8.4197,-8.4196,-8.4195,-8.4194,-8.3355,-8.3437,-8.3507,-8.3606,-8.366,-8.3726,-8.3806,-8.3838,-8.3926,-8.4028,-8.4026,-8.4141,-8.4204,-8.4322,-8.4364,-8.4453,-8.4417,-8.4457,-8.4468,-8.4478,-8.4489,-8.4218,-8.4468,-8.4468,-8.4467,-8.4467,-8.4466,0,-8.3596,-8.364,-8.3732,-8.3832,-8.391,-8.3883,-8.3958,-8.4025,-8.4127,-8.419,-8.427,-8.439,-8.4486,-8.4527,-8.4621,-8.4684,-8.4675,-8.4708,-8.4704,-8.4713,-8.4514,-8.4481,-8.4714,-8.4714,-8.4714,-8.4714,-8.4714,-8.4714,-8.3732,-8.3871,-8.3887,-8.4052,-8.4094,-8.4209,-8.4255,-8.4315,-8.4366,-8.4503,-8.4583,-8.4611,-8.4665,-8.4763,-8.4849,-8.4859,-8.4895,-8.4934,-8.4938,-8.4752,-8.4726,-8.4703,-8.4672,-8.4941,-8.4942,-8.513,-8.5132,-8.5133]}]]